Effective Sunday, March 17, 2024, the National Weather Service National Data Buoy Center will discontinue its Dial-A-Buoy Interactive Voice Response system. For more information, see Service Change Notice 24-06 (PDF).

Station PRTA2 - Point Retreat, AK Image indicating link to RSS feed of recent meteorological observations for station PRTA2


Conditions at PRTA2 as of
(8:10 am AKST)
1710 GMT on 03/01/2024:
     

Click on the graph icon in the table below to see a time series plot of the last five days of that observation.

5-day plot - Wind Direction Wind Direction (WDIR): N ( 350 deg true )
5-day plot - Wind Speed Wind Speed (WSPD): 22.9 kts
5-day plot - Wind Gust Wind Gust (GST): 35.0 kts
5-day plot - Atmospheric Pressure Atmospheric Pressure (PRES):29.63 in
5-day plot - Air Temperature Air Temperature (ATMP): 23.5 °F
5-day plot - Dew Point Dew Point (DEWP): 11.1 °F
5-day plot - Wind Chill Wind Chill (CHILL): 7.0 °F
5-day plot - Wind Speed at 10 Meters Wind Speed at 10 meters (WSPD10M): 23.3 kts
5-day plot - Wind Speed at 20 Meters Wind Speed at 20 meters (WSPD20M): 27.2 kts
5-day plot -  Wind Speed, Wind Gust and Atmospheric Pressure Combined plot of Wind Speed, Gust, and Air Pressure
Previous observations
TIME
(AKST)
5-day plot - Wind Direction
WDIR
 
5-day plot - Wind Speed
WSPD
kts
5-day plot - Wind Gust
GST
kts
5-day plot - Wave Height
WVHT
ft
5-day plot - Dominant Wave Period
DPD
sec
5-day plot - Average Wave Period
APD
sec
5-day plot - Mean Wave Direction
MWD
 
5-day plot - Atmospheric Pressure
PRES
in
5-day plot - Pressure Tendency
PTDY
in
5-day plot - Air Temperature
ATMP
°F
5-day plot - Water Temperature
WTMP
°F
5-day plot - Dew Point
DEWP
°F
5-day plot - Salinity
SAL
psu
5-day plot - Visibility
VIS
nmi
5-day plot - Tide (above MLLW)
TIDE
ft
2024-03-01 07:10 am N 22.0 35.0----29.62- 24.3- 12.0---
2024-03-01 06:10 am N 25.1 35.0----29.61- 24.6- 12.0---
2024-03-01 05:10 am N 22.9 35.9----29.60- 25.0- 11.5---
2024-03-01 04:10 am N 22.9 35.0----29.59- 25.5- 12.6---
2024-03-01 03:10 am N 24.1 35.0----29.58- 25.5- 12.4---
2024-03-01 02:10 am N 21.0 34.0----29.58- 25.7- 12.6---
2024-03-01 01:10 am N 22.0 34.0----29.56- 25.5- 11.8---
2024-03-01 12:10 am N 24.1 35.9----29.55- 25.9- 12.4---
2024-02-29 11:10 pm N 24.1 35.0----29.54- 26.2- 12.2---
2024-02-29 10:10 pm N 22.9 35.0----29.53- 26.2- 11.7---
2024-02-29 09:10 pm N 22.0 34.0----29.52- 26.6- 13.3---
2024-02-29 08:10 pm N 22.9 36.9----29.51- 26.8- 11.3---
2024-02-29 07:10 pm N 24.1 40.0----29.48- 27.0- 13.1---
2024-02-29 06:10 pm N 24.1 35.9----29.47- 27.3- 12.6---
2024-02-29 05:10 pm N 22.9 36.9----29.45- 27.7- 12.9---
2024-02-29 04:10 pm N 24.1 36.9----29.43- 28.0- 13.8---
2024-02-29 03:10 pm N 25.1 35.0----29.42- 27.9- 13.5---
2024-02-29 02:10 pm N 24.1 36.9----29.43- 27.1- 12.6---
2024-02-29 01:10 pm N 24.1 40.0----29.41- 26.6- 10.6---
2024-02-29 12:10 pm N 26.0 39.0----29.40- 26.1- 12.7---
2024-02-29 11:10 am N 26.0 38.1----29.40- 25.3- 13.5---
2024-02-29 10:10 am N 27.0 40.0----29.38- 25.3- 11.5---
2024-02-29 09:10 am N 22.0 35.9----29.36- 25.5- 15.4---
2024-02-29 08:10 am N 25.1 38.1----29.35- 25.0- 13.1---